Location: Jackson Park
(37.2862°N, 79.9123°W)
Time: 13:45:53
(UTC+00:00)

Vanguard 2 Rocket - Pass Details

Date: 15 May 2026
Orbit: 553 x 3286 km, 32.9° (Epoch: 6 June)

Event Time Altitude Azimuth Distance (km) Brightness Sun altitude
Rises 19:46:17 0° 275° (W) 6,340 11.7 52.5°
Reaches altitude 10° 19:50:03 10° 274° (W) 5,588 11.7 51.8°
Maximum altitude 20:08:24 70° 196° (SSW) 3,417 10.9 48.3°
Drops below altitude 10° 20:27:18 10° 117° (ESE) 5,724 10.7 44.6°
Sets 20:31:13 0° 115° (ESE) 6,493 10.9 43.9°
